Saint Bonnet de Bellac- Haute Vienne - France
Donnes mto: jeudi, 06/10/2011
Date Horaire Temp. E. Hum. E. P.atmo. Pluie Vent Direction Direction Ensoleilleme Solaire P. de rose Temp au vent Rafales
06/10/2011 00:00 11,1 C 83 % 1023,6 hPa 0,0 mm 0,0 km/h (0 Bft) E-SE 112 0 min 0 W/m 8,3 C 11,1 C 0,0 km/h (0 Bft)
06/10/2011 00:05 11,1 C 83 % 1023,6 hPa 0,0 mm 0,0 km/h (0 Bft) E-SE 112 0 min 0 W/m 8,3 C 11,1 C 0,0 km/h (0 Bft)
06/10/2011 00:10 11,1 C 83 % 1023,6 hPa 0,0 mm 0,0 km/h (0 Bft) E-SE 112 0 min 0 W/m 8,3 C 11,1 C 0,0 km/h (0 Bft)
06/10/2011 00:15 10,9 C 83 % 1023,6 hPa 0,0 mm 0,0 km/h (0 Bft) E 90 0 min 0 W/m 8,1 C 10,9 C 0,0 km/h (0 Bft)
06/10/2011 00:20 10,9 C 83 % 1023,6 hPa 0,0 mm 0,0 km/h (0 Bft) E 90 0 min 0 W/m 8,1 C 10,9 C 0,0 km/h (0 Bft)
06/10/2011 00:25 10,8 C 84 % 1023,5 hPa 0,0 mm 0,0 km/h (0 Bft) E-SE 112 0 min 0 W/m 8,2 C 10,8 C 0,0 km/h (0 Bft)
06/10/2011 00:30 10,8 C 84 % 1023,5 hPa 0,0 mm 0,0 km/h (0 Bft) SE 135 0 min 0 W/m 8,2 C 10,8 C 0,0 km/h (0 Bft)
06/10/2011 00:35 10,8 C 84 % 1023,5 hPa 0,0 mm 0,0 km/h (0 Bft) SE 135 0 min 0 W/m 8,2 C 10,8 C 0,0 km/h (0 Bft)
06/10/2011 00:40 10,6 C 84 % 1023,4 hPa 0,0 mm 0,0 km/h (0 Bft) SE 135 0 min 0 W/m 8,0 C 10,6 C 0,0 km/h (0 Bft)
06/10/2011 00:45 10,6 C 84 % 1023,4 hPa 0,0 mm 0,0 km/h (0 Bft) SE 135 0 min 0 W/m 8,0 C 10,6 C 0,0 km/h (0 Bft)
06/10/2011 00:50 10,5 C 84 % 1023,6 hPa 0,0 mm 1,4 km/h (1 Bft) S-SO 202 0 min 0 W/m 7,9 C 10,5 C 1,4 km/h (1 Bft)
06/10/2011 00:55 10,4 C 85 % 1023,6 hPa 0,0 mm 0,0 km/h (0 Bft) SO 225 0 min 0 W/m 8,0 C 10,4 C 0,0 km/h (0 Bft)
06/10/2011 01:00 10,4 C 85 % 1023,5 hPa 0,0 mm 0,0 km/h (0 Bft) O-SO 247 0 min 0 W/m 8,0 C 10,4 C 0,0 km/h (0 Bft)
06/10/2011 01:05 10,4 C 86 % 1023,5 hPa 0,0 mm 0,0 km/h (0 Bft) S-SO 202 0 min 0 W/m 8,2 C 10,4 C 0,0 km/h (0 Bft)
06/10/2011 01:10 10,4 C 86 % 1023,4 hPa 0,0 mm 0,0 km/h (0 Bft) S-SO 202 0 min 0 W/m 8,2 C 10,4 C 0,0 km/h (0 Bft)
06/10/2011 01:15 10,4 C 86 % 1023,2 hPa 0,0 mm 0,0 km/h (0 Bft) S-SO 202 0 min 0 W/m 8,2 C 10,4 C 0,0 km/h (0 Bft)
06/10/2011 01:20 10,4 C 86 % 1023,1 hPa 0,0 mm 0,0 km/h (0 Bft) S 180 0 min 0 W/m 8,2 C 10,4 C 0,0 km/h (0 Bft)
06/10/2011 01:25 10,4 C 86 % 1023,1 hPa 0,0 mm 0,0 km/h (0 Bft) O 270 0 min 0 W/m 8,2 C 10,4 C 0,0 km/h (0 Bft)
06/10/2011 01:30 10,3 C 86 % 1023,1 hPa 0,0 mm 0,0 km/h (0 Bft) O 270 0 min 0 W/m 8,1 C 10,3 C 0,0 km/h (0 Bft)
06/10/2011 01:35 10,3 C 86 % 1023,0 hPa 0,0 mm 0,0 km/h (0 Bft) O 270 0 min 0 W/m 8,1 C 10,3 C 0,0 km/h (0 Bft)
06/10/2011 01:40 10,2 C 86 % 1022,9 hPa 0,0 mm 0,0 km/h (0 Bft) O 270 0 min 0 W/m 8,0 C 10,2 C 0,0 km/h (0 Bft)
06/10/2011 01:45 10,2 C 86 % 1022,9 hPa 0,0 mm 0,0 km/h (0 Bft) O 270 0 min 0 W/m 8,0 C 10,2 C 0,0 km/h (0 Bft)
06/10/2011 01:50 10,2 C 86 % 1022,9 hPa 0,0 mm 0,0 km/h (0 Bft) O 270 0 min 0 W/m 8,0 C 10,2 C 0,0 km/h (0 Bft)
06/10/2011 01:55 10,1 C 86 % 1023,0 hPa 0,0 mm 0,0 km/h (0 Bft) O 270 0 min 0 W/m 7,9 C 10,1 C 0,0 km/h (0 Bft)
06/10/2011 02:00 10,1 C 87 % 1022,8 hPa 0,0 mm 0,0 km/h (0 Bft) O 270 0 min 0 W/m 8,0 C 10,1 C 0,0 km/h (0 Bft)
06/10/2011 02:05 10,1 C 87 % 1022,8 hPa 0,0 mm 0,0 km/h (0 Bft) O-SO 247 0 min 0 W/m 8,0 C 10,1 C 0,0 km/h (0 Bft)
06/10/2011 02:10 10,2 C 87 % 1022,7 hPa 0,0 mm 0,0 km/h (0 Bft) S-SE 157 0 min 0 W/m 8,1 C 10,2 C 0,0 km/h (0 Bft)
06/10/2011 02:15 10,2 C 87 % 1022,6 hPa 0,0 mm 0,0 km/h (0 Bft) SE 135 0 min 0 W/m 8,1 C 10,2 C 0,0 km/h (0 Bft)
06/10/2011 02:20 10,2 C 87 % 1022,6 hPa 0,0 mm 0,0 km/h (0 Bft) S-SO 202 0 min 0 W/m 8,1 C 10,2 C 0,0 km/h (0 Bft)
06/10/2011 02:25 10,2 C 87 % 1022,5 hPa 0,0 mm 0,0 km/h (0 Bft) S-SO 202 0 min 0 W/m 8,1 C 10,2 C 0,0 km/h (0 Bft)
06/10/2011 02:30 10,1 C 87 % 1022,6 hPa 0,0 mm 0,0 km/h (0 Bft) S-SO 202 0 min 0 W/m 8,0 C 10,1 C 0,0 km/h (0 Bft)
06/10/2011 02:35 10,1 C 87 % 1022,7 hPa 0,0 mm 0,0 km/h (0 Bft) S-SO 202 0 min 0 W/m 8,0 C 10,1 C 0,0 km/h (0 Bft)
06/10/2011 02:40 9,9 C 87 % 1022,8 hPa 0,0 mm 0,0 km/h (0 Bft) S-SO 202 0 min 0 W/m 7,8 C 9,9 C 0,0 km/h (0 Bft)
06/10/2011 02:45 9,9 C 87 % 1022,7 hPa 0,0 mm 0,0 km/h (0 Bft) S-SO 202 0 min 0 W/m 7,8 C 9,9 C 0,0 km/h (0 Bft)
06/10/2011 02:50 10,1 C 88 % 1022,5 hPa 0,0 mm 0,0 km/h (0 Bft) S-SO 202 0 min 0 W/m 8,2 C 10,1 C 0,0 km/h (0 Bft)
06/10/2011 02:55 10,1 C 87 % 1022,6 hPa 0,0 mm 0,0 km/h (0 Bft) S-SO 202 0 min 0 W/m 8,0 C 10,1 C 0,0 km/h (0 Bft)
06/10/2011 03:02 10,1 C 88 % 1022,7 hPa 0,0 mm 0,0 km/h (0 Bft) S-SO 202 0 min 0 W/m 8,2 C 10,1 C 0,0 km/h (0 Bft)
06/10/2011 03:05 10,0 C 87 % 1022,7 hPa 0,0 mm 0,0 km/h (0 Bft) S-SO 202 0 min 0 W/m 7,9 C 10,0 C 0,0 km/h (0 Bft)
06/10/2011 03:10 9,9 C 87 % 1022,7 hPa 0,0 mm 0,0 km/h (0 Bft) S-SO 202 0 min 0 W/m 7,8 C 9,9 C 0,0 km/h (0 Bft)
06/10/2011 03:15 9,8 C 87 % 1022,6 hPa 0,0 mm 0,0 km/h (0 Bft) S-SO 202 0 min 0 W/m 7,7 C 9,8 C 0,0 km/h (0 Bft)
06/10/2011 03:20 9,8 C 88 % 1022,5 hPa 0,0 mm 0,0 km/h (0 Bft) S-SO 202 0 min 0 W/m 7,9 C 9,8 C 0,0 km/h (0 Bft)
06/10/2011 03:25 9,8 C 88 % 1022,5 hPa 0,0 mm 0,0 km/h (0 Bft) S-SO 202 0 min 0 W/m 7,9 C 9,8 C 0,0 km/h (0 Bft)
06/10/2011 03:30 9,8 C 88 % 1022,4 hPa 0,0 mm 0,0 km/h (0 Bft) S-SO 202 0 min 0 W/m 7,9 C 9,8 C 0,0 km/h (0 Bft)
06/10/2011 03:35 9,8 C 88 % 1022,4 hPa 0,0 mm 0,0 km/h (0 Bft) S-SO 202 0 min 0 W/m 7,9 C 9,8 C 0,0 km/h (0 Bft)
06/10/2011 03:40 9,8 C 88 % 1022,4 hPa 0,0 mm 0,0 km/h (0 Bft) S-SO 202 0 min 0 W/m 7,9 C 9,8 C 0,0 km/h (0 Bft)
06/10/2011 03:45 9,8 C 88 % 1022,3 hPa 0,0 mm 0,0 km/h (0 Bft) S-SO 202 0 min 0 W/m 7,9 C 9,8 C 0,0 km/h (0 Bft)
06/10/2011 03:50 9,7 C 88 % 1022,3 hPa 0,0 mm 0,0 km/h (0 Bft) S-SO 202 0 min 0 W/m 7,8 C 9,7 C 0,0 km/h (0 Bft)
06/10/2011 03:55 9,6 C 88 % 1022,4 hPa 0,0 mm 0,0 km/h (0 Bft) S-SO 202 0 min 0 W/m 7,7 C 9,6 C 0,0 km/h (0 Bft)
06/10/2011 04:00 9,6 C 88 % 1022,4 hPa 0,0 mm 0,0 km/h (0 Bft) S-SO 202 0 min 0 W/m 7,7 C 9,6 C 0,0 km/h (0 Bft)
06/10/2011 04:05 9,6 C 88 % 1022,2 hPa 0,0 mm 0,0 km/h (0 Bft) S-SO 202 0 min 0 W/m 7,7 C 9,6 C 0,0 km/h (0 Bft)
06/10/2011 04:10 9,7 C 89 % 1022,2 hPa 0,0 mm 0,0 km/h (0 Bft) S-SO 202 0 min 0 W/m 8,0 C 9,7 C 0,0 km/h (0 Bft)
06/10/2011 04:15 9,8 C 89 % 1022,1 hPa 0,0 mm 0,0 km/h (0 Bft) S-SO 202 0 min 0 W/m 8,1 C 9,8 C 0,0 km/h (0 Bft)
06/10/2011 04:20 9,8 C 89 % 1021,9 hPa 0,0 mm 0,0 km/h (0 Bft) S 180 0 min 0 W/m 8,1 C 9,8 C 0,0 km/h (0 Bft)
06/10/2011 04:25 9,8 C 89 % 1022,0 hPa 0,0 mm 0,0 km/h (0 Bft) S-SO 202 0 min 0 W/m 8,1 C 9,8 C 0,0 km/h (0 Bft)
06/10/2011 04:30 9,9 C 89 % 1021,8 hPa 0,0 mm 0,0 km/h (0 Bft) S 180 0 min 0 W/m 8,2 C 9,9 C 0,0 km/h (0 Bft)
06/10/2011 04:35 10,1 C 89 % 1021,8 hPa 0,0 mm 0,0 km/h (0 Bft) S 180 0 min 0 W/m 8,4 C 10,1 C 0,0 km/h (0 Bft)
06/10/2011 04:40 10,2 C 89 % 1021,8 hPa 0,0 mm 0,0 km/h (0 Bft) S 180 0 min 0 W/m 8,5 C 10,2 C 0,0 km/h (0 Bft)
06/10/2011 04:45 10,3 C 89 % 1021,8 hPa 0,0 mm 0,0 km/h (0 Bft) S-SO 202 0 min 0 W/m 8,6 C 10,3 C 0,0 km/h (0 Bft)
06/10/2011 04:50 10,3 C 89 % 1021,7 hPa 0,0 mm 0,0 km/h (0 Bft) S-SO 202 0 min 0 W/m 8,6 C 10,3 C 0,0 km/h (0 Bft)
06/10/2011 04:55 10,3 C 89 % 1021,8 hPa 0,0 mm 0,0 km/h (0 Bft) S-SO 202 0 min 0 W/m 8,6 C 10,3 C 0,0 km/h (0 Bft)
06/10/2011 05:00 10,3 C 89 % 1021,7 hPa 0,0 mm 0,0 km/h (0 Bft) S-SO 202 0 min 0 W/m 8,6 C 10,3 C 0,0 km/h (0 Bft)
06/10/2011 05:05 10,3 C 89 % 1021,7 hPa 0,0 mm 0,0 km/h (0 Bft) O-SO 247 0 min 0 W/m 8,6 C 10,3 C 0,0 km/h (0 Bft)
06/10/2011 05:10 10,2 C 89 % 1021,5 hPa 0,0 mm 0,0 km/h (0 Bft) SO 225 0 min 0 W/m 8,5 C 10,2 C 0,0 km/h (0 Bft)
06/10/2011 05:15 10,3 C 89 % 1021,6 hPa 0,0 mm 0,0 km/h (0 Bft) SO 225 0 min 0 W/m 8,6 C 10,3 C 0,0 km/h (0 Bft)
06/10/2011 05:20 10,3 C 89 % 1021,4 hPa 0,0 mm 0,0 km/h (0 Bft) S 180 0 min 0 W/m 8,6 C 10,3 C 0,0 km/h (0 Bft)
06/10/2011 05:25 10,3 C 90 % 1021,5 hPa 0,0 mm 0,0 km/h (0 Bft) S 180 0 min 0 W/m 8,7 C 10,3 C 0,0 km/h (0 Bft)
06/10/2011 05:30 10,3 C 89 % 1021,6 hPa 0,0 mm 0,0 km/h (0 Bft) S-SO 202 0 min 0 W/m 8,6 C 10,3 C 0,0 km/h (0 Bft)
06/10/2011 05:35 10,3 C 90 % 1021,7 hPa 0,0 mm 0,0 km/h (0 Bft) S-SO 202 0 min 0 W/m 8,7 C 10,3 C 0,0 km/h (0 Bft)
06/10/2011 05:40 10,3 C 90 % 1021,7 hPa 0,0 mm 0,0 km/h (0 Bft) S-SO 202 0 min 0 W/m 8,7 C 10,3 C 0,0 km/h (0 Bft)
06/10/2011 05:45 10,3 C 90 % 1021,6 hPa 0,0 mm 0,0 km/h (0 Bft) S-SO 202 0 min 0 W/m 8,7 C 10,3 C 0,0 km/h (0 Bft)
06/10/2011 05:50 10,3 C 90 % 1021,6 hPa 0,0 mm 0,0 km/h (0 Bft) S-SO 202 0 min 0 W/m 8,7 C 10,3 C 0,0 km/h (0 Bft)
06/10/2011 05:55 10,3 C 90 % 1021,5 hPa 0,0 mm 0,0 km/h (0 Bft) S-SO 202 0 min 0 W/m 8,7 C 10,3 C 2,9 km/h (1 Bft)
06/10/2011 06:00 10,4 C 90 % 1021,4 hPa 0,0 mm 0,4 km/h (0 Bft) S-SO 202 0 min 0 W/m 8,8 C 10,4 C 3,6 km/h (1 Bft)
06/10/2011 06:05 10,4 C 90 % 1021,3 hPa 0,0 mm 0,7 km/h (0 Bft) S-SO 202 0 min 0 W/m 8,8 C 10,4 C 4,0 km/h (1 Bft)
06/10/2011 06:10 10,4 C 90 % 1021,3 hPa 0,0 mm 0,0 km/h (0 Bft) S-SO 202 0 min 0 W/m 8,8 C 10,4 C 0,0 km/h (0 Bft)
06/10/2011 06:15 10,5 C 90 % 1021,3 hPa 0,0 mm 0,4 km/h (0 Bft) S-SO 202 0 min 0 W/m 8,9 C 10,5 C 3,2 km/h (1 Bft)
06/10/2011 06:20 10,6 C 90 % 1021,4 hPa 0,0 mm 0,0 km/h (0 Bft) SO 225 0 min 0 W/m 9,0 C 10,6 C 2,9 km/h (1 Bft)
06/10/2011 06:25 10,8 C 90 % 1021,3 hPa 0,0 mm 0,0 km/h (0 Bft) S-SO 202 0 min 0 W/m 9,2 C 10,8 C 0,0 km/h (0 Bft)
06/10/2011 06:30 10,9 C 91 % 1021,2 hPa 0,0 mm 1,4 km/h (1 Bft) S-SO 202 0 min 0 W/m 9,5 C 10,9 C 3,6 km/h (1 Bft)
06/10/2011 06:35 11,1 C 90 % 1021,2 hPa 0,0 mm 0,0 km/h (0 Bft) S-SO 202 0 min 0 W/m 9,5 C 11,1 C 0,0 km/h (0 Bft)
06/10/2011 06:40 11,2 C 91 % 1021,2 hPa 0,0 mm 0,0 km/h (0 Bft) SO 225 0 min 0 W/m 9,8 C 11,2 C 0,0 km/h (0 Bft)
06/10/2011 06:45 11,3 C 91 % 1021,2 hPa 0,0 mm 2,9 km/h (1 Bft) S-SO 202 0 min 0 W/m 9,9 C 11,3 C 6,5 km/h (2 Bft)
06/10/2011 06:50 11,5 C 91 % 1020,9 hPa 0,0 mm 0,7 km/h (0 Bft) S-SO 202 0 min 0 W/m 10,1 C 11,5 C 4,0 km/h (1 Bft)
06/10/2011 06:55 11,6 C 92 % 1021,0 hPa 0,0 mm 0,7 km/h (0 Bft) S-SO 202 0 min 0 W/m 10,3 C 11,6 C 0,7 km/h (0 Bft)
06/10/2011 07:00 11,8 C 92 % 1021,0 hPa 0,0 mm 0,4 km/h (0 Bft) S 180 0 min 0 W/m 10,5 C 11,8 C 0,4 km/h (0 Bft)
06/10/2011 07:05 11,9 C 92 % 1021,0 hPa 0,0 mm 1,8 km/h (1 Bft) S-SO 202 0 min 0 W/m 10,6 C 11,9 C 4,3 km/h (1 Bft)
06/10/2011 07:10 12,1 C 92 % 1021,1 hPa 0,0 mm 0,7 km/h (0 Bft) S 180 0 min 0 W/m 10,8 C 12,1 C 4,0 km/h (1 Bft)
06/10/2011 07:15 12,2 C 92 % 1021,0 hPa 0,0 mm 4,3 km/h (1 Bft) S 180 0 min 0 W/m 10,9 C 12,2 C 7,6 km/h (2 Bft)
06/10/2011 07:20 12,3 C 92 % 1021,0 hPa 0,0 mm 4,3 km/h (1 Bft) S-SO 202 0 min 0 W/m 11,0 C 12,3 C 7,6 km/h (2 Bft)
06/10/2011 07:25 12,4 C 92 % 1020,9 hPa 0,0 mm 4,0 km/h (1 Bft) S 180 0 min 0 W/m 11,1 C 12,4 C 6,8 km/h (2 Bft)
06/10/2011 07:30 12,4 C 92 % 1020,9 hPa 0,0 mm 2,5 km/h (1 Bft) S 180 0 min 0 W/m 11,1 C 12,4 C 7,6 km/h (2 Bft)
06/10/2011 07:35 12,5 C 92 % 1020,9 hPa 0,0 mm 0,7 km/h (0 Bft) S-SO 202 0 min 0 W/m 11,2 C 12,5 C 5,8 km/h (2 Bft)
06/10/2011 07:40 12,5 C 92 % 1020,9 hPa 0,0 mm 1,4 km/h (1 Bft) S 180 0 min 0 W/m 11,2 C 12,5 C 4,3 km/h (1 Bft)
06/10/2011 07:45 12,6 C 92 % 1021,0 hPa 0,0 mm 1,8 km/h (1 Bft) S-SO 202 0 min 0 W/m 11,3 C 12,6 C 3,2 km/h (1 Bft)
06/10/2011 07:50 12,6 C 92 % 1020,9 hPa 0,0 mm 1,8 km/h (1 Bft) S-SO 202 0 min 0 W/m 11,3 C 12,6 C 4,7 km/h (1 Bft)
06/10/2011 07:55 12,8 C 92 % 1021,0 hPa 0,0 mm 4,0 km/h (1 Bft) S-SO 202 0 min 0 W/m 11,5 C 12,8 C 4,0 km/h (1 Bft)
06/10/2011 08:00 12,8 C 92 % 1020,8 hPa 0,0 mm 5,0 km/h (1 Bft) SO 225 0 min 0 W/m 11,5 C 12,8 C 9,7 km/h (2 Bft)
06/10/2011 08:05 12,8 C 92 % 1020,8 hPa 0,0 mm 2,9 km/h (1 Bft) S-SO 202 0 min 0 W/m 11,5 C 12,8 C 8,3 km/h (2 Bft)
06/10/2011 08:10 12,9 C 92 % 1020,8 hPa 0,0 mm 5,8 km/h (2 Bft) S-SO 202 0 min 0 W/m 11,6 C 12,9 C 9,7 km/h (2 Bft)
06/10/2011 08:15 12,9 C 92 % 1020,8 hPa 0,0 mm 6,5 km/h (2 Bft) S 180 0 min 0 W/m 11,6 C 12,9 C 9,4 km/h (2 Bft)
06/10/2011 08:20 13,1 C 92 % 1020,9 hPa 0,0 mm 3,2 km/h (1 Bft) SO 225 0 min 0 W/m 11,8 C 13,1 C 7,6 km/h (2 Bft)
06/10/2011 08:25 13,1 C 92 % 1020,9 hPa 0,0 mm 1,8 km/h (1 Bft) S-SO 202 0 min 0 W/m 11,8 C 13,1 C 2,9 km/h (1 Bft)
06/10/2011 08:30 13,1 C 92 % 1020,9 hPa 0,0 mm 1,8 km/h (1 Bft) S-SO 202 0 min 0 W/m 11,8 C 13,1 C 4,3 km/h (1 Bft)
06/10/2011 08:35 13,1 C 92 % 1021,0 hPa 0,0 mm 2,2 km/h (1 Bft) SO 225 0 min 0 W/m 11,8 C 13,1 C 6,5 km/h (2 Bft)
06/10/2011 08:40 13,1 C 92 % 1021,0 hPa 0,0 mm 4,0 km/h (1 Bft) S-SO 202 0 min 0 W/m 11,8 C 13,1 C 4,3 km/h (1 Bft)
06/10/2011 08:45 13,1 C 92 % 1021,0 hPa 0,0 mm 2,2 km/h (1 Bft) S-SO 202 0 min 0 W/m 11,8 C 13,1 C 2,9 km/h (1 Bft)
06/10/2011 08:50 13,2 C 92 % 1021,1 hPa 0,0 mm 2,9 km/h (1 Bft) S-SO 202 0 min 0 W/m 11,9 C 13,2 C 9,7 km/h (2 Bft)
06/10/2011 08:55 13,3 C 92 % 1021,2 hPa 0,0 mm 5,0 km/h (1 Bft) SO 225 0 min 0 W/m 12,0 C 13,3 C 9,0 km/h (2 Bft)
06/10/2011 09:00 13,4 C 92 % 1021,2 hPa 0,0 mm 3,2 km/h (1 Bft) SO 225 0 min 0 W/m 12,1 C 13,4 C 7,6 km/h (2 Bft)
06/10/2011 09:05 13,5 C 93 % 1021,3 hPa 0,0 mm 2,9 km/h (1 Bft) SO 225 0 min 0 W/m 12,4 C 13,5 C 4,3 km/h (1 Bft)
06/10/2011 09:10 13,6 C 92 % 1021,3 hPa 0,0 mm 2,9 km/h (1 Bft) N 360 0 min 0 W/m 12,3 C 13,6 C 2,9 km/h (1 Bft)
06/10/2011 09:15 13,7 C 92 % 1021,4 hPa 0,0 mm 5,8 km/h (2 Bft) SO 225 0 min 0 W/m 12,4 C 13,7 C 7,9 km/h (2 Bft)
06/10/2011 09:20 13,8 C 92 % 1021,4 hPa 0,0 mm 6,1 km/h (2 Bft) SO 225 0 min 0 W/m 12,5 C 13,8 C 12,6 km/h (3 Bft)
06/10/2011 09:25 13,9 C 92 % 1021,1 hPa 0,0 mm 7,2 km/h (2 Bft) S-SO 202 0 min 0 W/m 12,6 C 13,9 C 14,4 km/h (3 Bft)
06/10/2011 09:30 14,1 C 92 % 1021,2 hPa 0,0 mm 5,4 km/h (2 Bft) SO 225 0 min 0 W/m 12,8 C 14,1 C 9,0 km/h (2 Bft)
06/10/2011 09:35 14,2 C 92 % 1021,3 hPa 0,0 mm 5,4 km/h (2 Bft) SO 225 0 min 0 W/m 12,9 C 14,2 C 7,6 km/h (2 Bft)
06/10/2011 09:40 14,3 C 92 % 1021,3 hPa 0,0 mm 6,8 km/h (2 Bft) SO 225 0 min 0 W/m 13,0 C 14,3 C 10,8 km/h (2 Bft)
06/10/2011 09:45 14,4 C 92 % 1021,3 hPa 0,0 mm 7,6 km/h (2 Bft) SO 225 0 min 0 W/m 13,1 C 14,4 C 15,1 km/h (3 Bft)
06/10/2011 09:50 14,5 C 91 % 1021,3 hPa 0,0 mm 7,2 km/h (2 Bft) S-SO 202 0 min 0 W/m 13,0 C 14,5 C 14,0 km/h (3 Bft)
06/10/2011 09:55 14,5 C 91 % 1021,4 hPa 0,0 mm 6,5 km/h (2 Bft) SO 225 0 min 0 W/m 13,0 C 14,5 C 10,4 km/h (2 Bft)
06/10/2011 10:00 14,7 C 91 % 1021,4 hPa 0,0 mm 7,6 km/h (2 Bft) S-SO 202 0 min 0 W/m 13,2 C 14,7 C 7,9 km/h (2 Bft)
06/10/2011 10:05 14,8 C 91 % 1021,3 hPa 0,0 mm 9,4 km/h (2 Bft) SO 225 0 min 0 W/m 13,3 C 14,8 C 12,2 km/h (2 Bft)
06/10/2011 10:10 14,9 C 91 % 1021,4 hPa 0,0 mm 4,3 km/h (1 Bft) S-SO 202 0 min 0 W/m 13,4 C 14,9 C 7,9 km/h (2 Bft)
06/10/2011 10:15 15,0 C 91 % 1021,5 hPa 0,0 mm 9,0 km/h (2 Bft) SO 225 0 min 0 W/m 13,5 C 15,0 C 17,3 km/h (3 Bft)
06/10/2011 10:20 15,1 C 91 % 1021,5 hPa 0,0 mm 6,5 km/h (2 Bft) SO 225 0 min 0 W/m 13,6 C 15,1 C 6,5 km/h (2 Bft)
06/10/2011 10:25 15,2 C 91 % 1021,4 hPa 0,0 mm 5,0 km/h (1 Bft) S 180 0 min 0 W/m 13,7 C 15,2 C 13,7 km/h (3 Bft)
06/10/2011 10:30 15,3 C 91 % 1021,5 hPa 0,0 mm 7,9 km/h (2 Bft) SO 225 0 min 0 W/m 13,8 C 15,3 C 9,4 km/h (2 Bft)
06/10/2011 10:35 15,3 C 91 % 1021,6 hPa 0,0 mm 3,6 km/h (1 Bft) SO 225 0 min 0 W/m 13,8 C 15,3 C 4,7 km/h (1 Bft)
06/10/2011 10:40 15,3 C 91 % 1021,5 hPa 0,0 mm 9,0 km/h (2 Bft) S-SO 202 0 min 0 W/m 13,8 C 15,3 C 9,7 km/h (2 Bft)
06/10/2011 10:45 15,4 C 91 % 1021,6 hPa 0,0 mm 9,0 km/h (2 Bft) N 360 0 min 0 W/m 13,9 C 15,4 C 9,0 km/h (2 Bft)
06/10/2011 10:50 15,5 C 91 % 1021,5 hPa 0,0 mm 9,0 km/h (2 Bft) N 360 0 min 0 W/m 14,0 C 15,5 C 9,0 km/h (2 Bft)
06/10/2011 10:55 15,6 C 91 % 1021,4 hPa 0,0 mm 7,2 km/h (2 Bft) S-SO 202 0 min 0 W/m 14,1 C 15,6 C 13,3 km/h (3 Bft)
06/10/2011 11:00 15,8 C 91 % 1021,4 hPa 0,0 mm 6,5 km/h (2 Bft) O-SO 247 0 min 0 W/m 14,3 C 15,8 C 9,4 km/h (2 Bft)
06/10/2011 11:05 15,9 C 91 % 1021,4 hPa 0,0 mm 6,5 km/h (2 Bft) N 360 0 min 0 W/m 14,4 C 15,9 C 6,5 km/h (2 Bft)
06/10/2011 11:10 16,2 C 90 % 1021,4 hPa 0,0 mm 6,5 km/h (2 Bft) S-SO 202 0 min 0 W/m 14,6 C 16,2 C 6,5 km/h (2 Bft)
06/10/2011 11:15 16,4 C 89 % 1021,3 hPa 0,0 mm 9,0 km/h (2 Bft) SO 225 0 min 0 W/m 14,6 C 16,4 C 11,5 km/h (2 Bft)
06/10/2011 11:20 16,3 C 89 % 1021,3 hPa 0,0 mm 8,3 km/h (2 Bft) SO 225 0 min 0 W/m 14,5 C 16,3 C 13,7 km/h (3 Bft)
06/10/2011 11:25 16,3 C 88 % 1021,2 hPa 0,0 mm 6,5 km/h (2 Bft) SO 225 0 min 0 W/m 14,3 C 16,3 C 9,7 km/h (2 Bft)
06/10/2011 11:30 16,4 C 88 % 1021,2 hPa 0,0 mm 9,7 km/h (2 Bft) SO 225 0 min 0 W/m 14,4 C 16,4 C 11,9 km/h (2 Bft)
06/10/2011 11:35 16,5 C 88 % 1021,1 hPa 0,0 mm 12,2 km/h (2 Bft) SO 225 0 min 0 W/m 14,5 C 16,5 C 15,8 km/h (3 Bft)
06/10/2011 11:40 16,6 C 88 % 1021,1 hPa 0,0 mm 8,3 km/h (2 Bft) SO 225 0 min 0 W/m 14,6 C 16,6 C 13,3 km/h (3 Bft)
06/10/2011 11:45 16,6 C 88 % 1021,0 hPa 0,0 mm 7,9 km/h (2 Bft) SO 225 0 min 0 W/m 14,6 C 16,6 C 14,8 km/h (3 Bft)
06/10/2011 11:50 16,8 C 87 % 1021,0 hPa 0,0 mm 7,2 km/h (2 Bft) S-SO 202 0 min 0 W/m 14,6 C 16,8 C 9,7 km/h (2 Bft)
06/10/2011 11:55 16,8 C 88 % 1021,0 hPa 0,0 mm 5,8 km/h (2 Bft) SO 225 0 min 0 W/m 14,8 C 16,8 C 11,2 km/h (2 Bft)
06/10/2011 12:00 16,8 C 88 % 1021,0 hPa 0,0 mm 7,9 km/h (2 Bft) SO 225 0 min 0 W/m 14,8 C 16,8 C 12,2 km/h (2 Bft)
06/10/2011 12:05 16,9 C 88 % 1020,9 hPa 0,0 mm 7,9 km/h (2 Bft) N 360 0 min 0 W/m 14,9 C 16,9 C 7,9 km/h (2 Bft)
06/10/2011 12:10 16,9 C 87 % 1020,9 hPa 0,0 mm 4,0 km/h (1 Bft) O-SO 247 0 min 0 W/m 14,7 C 16,9 C 7,2 km/h (2 Bft)
06/10/2011 12:15 16,9 C 87 % 1020,9 hPa 0,0 mm 4,0 km/h (1 Bft) SO 225 0 min 0 W/m 14,7 C 16,9 C 4,0 km/h (1 Bft)
06/10/2011 12:20 17,1 C 87 % 1020,8 hPa 0,0 mm 5,0 km/h (1 Bft) SO 225 0 min 0 W/m 14,9 C 17,1 C 10,1 km/h (2 Bft)
06/10/2011 12:25 17,2 C 87 % 1020,7 hPa 0,0 mm 6,1 km/h (2 Bft) SO 225 0 min 0 W/m 15,0 C 17,2 C 10,4 km/h (2 Bft)
06/10/2011 12:30 17,3 C 87 % 1020,8 hPa 0,0 mm 9,4 km/h (2 Bft) S-SO 202 0 min 0 W/m 15,1 C 17,3 C 13,0 km/h (3 Bft)
06/10/2011 12:35 17,3 C 87 % 1020,8 hPa 0,0 mm 4,3 km/h (1 Bft) S-SO 202 0 min 0 W/m 15,1 C 17,3 C 6,8 km/h (2 Bft)
06/10/2011 12:40 17,4 C 87 % 1020,7 hPa 0,0 mm 2,9 km/h (1 Bft) S-SO 202 0 min 0 W/m 15,2 C 17,4 C 6,1 km/h (2 Bft)
06/10/2011 12:45 17,4 C 87 % 1020,7 hPa 0,0 mm 7,6 km/h (2 Bft) SO 225 0 min 0 W/m 15,2 C 17,4 C 12,2 km/h (2 Bft)
06/10/2011 12:50 17,8 C 87 % 1020,5 hPa 0,0 mm 6,1 km/h (2 Bft) S-SO 202 0 min 0 W/m 15,6 C 17,8 C 10,4 km/h (2 Bft)
06/10/2011 12:55 18,3 C 85 % 1020,5 hPa 0,0 mm 7,9 km/h (2 Bft) O 270 0 min 0 W/m 15,7 C 18,3 C 7,9 km/h (2 Bft)
06/10/2011 13:00 18,5 C 85 % 1020,6 hPa 0,0 mm 7,2 km/h (2 Bft) S-SO 202 0 min 0 W/m 15,9 C 18,5 C 9,7 km/h (2 Bft)
06/10/2011 13:05 18,6 C 84 % 1020,4 hPa 0,0 mm 10,1 km/h (2 Bft) O-SO 247 0 min 0 W/m 15,8 C 18,6 C 15,8 km/h (3 Bft)
06/10/2011 13:10 18,9 C 82 % 1020,3 hPa 0,0 mm 9,0 km/h (2 Bft) SO 225 0 min 0 W/m 15,8 C 18,9 C 16,6 km/h (3 Bft)
06/10/2011 13:15 19,0 C 81 % 1020,3 hPa 0,0 mm 8,3 km/h (2 Bft) S-SO 202 0 min 0 W/m 15,7 C 19,0 C 14,0 km/h (3 Bft)
06/10/2011 13:20 19,1 C 81 % 1020,2 hPa 0,0 mm 6,5 km/h (2 Bft) SO 225 0 min 0 W/m 15,8 C 19,1 C 13,0 km/h (3 Bft)
06/10/2011 13:25 19,3 C 81 % 1020,0 hPa 0,0 mm 6,5 km/h (2 Bft) SO 225 0 min 0 W/m 16,0 C 19,3 C 10,8 km/h (2 Bft)
06/10/2011 13:30 19,6 C 80 % 1020,0 hPa 0,0 mm 15,1 km/h (3 Bft) S-SO 202 0 min 0 W/m 16,1 C 19,6 C 20,5 km/h (4 Bft)
06/10/2011 13:35 19,7 C 78 % 1019,9 hPa 0,0 mm 8,6 km/h (2 Bft) SO 225 0 min 0 W/m 15,8 C 19,7 C 11,5 km/h (2 Bft)
06/10/2011 13:40 19,8 C 78 % 1019,9 hPa 0,0 mm 9,4 km/h (2 Bft) S-SO 202 0 min 0 W/m 15,8 C 19,8 C 16,6 km/h (3 Bft)
06/10/2011 13:45 19,7 C 78 % 1019,9 hPa 0,0 mm 7,2 km/h (2 Bft) O-SO 247 0 min 0 W/m 15,8 C 19,7 C 11,5 km/h (2 Bft)
06/10/2011 13:50 19,7 C 77 % 1019,8 hPa 0,0 mm 13,7 km/h (3 Bft) SO 225 0 min 0 W/m 15,5 C 19,7 C 21,6 km/h (4 Bft)
06/10/2011 13:55 19,7 C 77 % 1019,7 hPa 0,0 mm 7,9 km/h (2 Bft) O-SO 247 0 min 0 W/m 15,5 C 19,7 C 9,4 km/h (2 Bft)
06/10/2011 14:00 19,6 C 77 % 1019,6 hPa 0,0 mm 6,5 km/h (2 Bft) O-SO 247 0 min 0 W/m 15,5 C 19,6 C 13,7 km/h (3 Bft)
06/10/2011 14:05 19,6 C 77 % 1019,8 hPa 0,0 mm 5,0 km/h (1 Bft) SO 225 0 min 0 W/m 15,5 C 19,6 C 8,3 km/h (2 Bft)
06/10/2011 14:10 19,6 C 77 % 1019,6 hPa 0,0 mm 7,2 km/h (2 Bft) S-SO 202 0 min 0 W/m 15,5 C 19,6 C 14,4 km/h (3 Bft)
06/10/2011 14:15 19,7 C 78 % 1019,5 hPa 0,0 mm 4,3 km/h (1 Bft) O-SO 247 0 min 0 W/m 15,8 C 19,7 C 8,6 km/h (2 Bft)
06/10/2011 14:20 19,9 C 77 % 1019,4 hPa 0,0 mm 13,3 km/h (3 Bft) SO 225 0 min 0 W/m 15,7 C 19,9 C 19,8 km/h (3 Bft)
06/10/2011 14:25 20,2 C 77 % 1019,3 hPa 0,0 mm 5,4 km/h (2 Bft) O-SO 247 0 min 0 W/m 16,0 C 20,2 C 10,8 km/h (2 Bft)
06/10/2011 14:30 20,4 C 75 % 1019,2 hPa 0,0 mm 7,6 km/h (2 Bft) O-SO 247 0 min 0 W/m 15,8 C 20,4 C 12,2 km/h (2 Bft)
06/10/2011 14:35 20,4 C 75 % 1019,2 hPa 0,0 mm 3,2 km/h (1 Bft) S 180 0 min 0 W/m 15,8 C 20,4 C 7,6 km/h (2 Bft)
06/10/2011 14:40 20,3 C 75 % 1019,1 hPa 0,0 mm 4,7 km/h (1 Bft) SO 225 0 min 0 W/m 15,7 C 20,3 C 7,2 km/h (2 Bft)
06/10/2011 14:45 20,0 C 75 % 1019,2 hPa 0,0 mm 9,4 km/h (2 Bft) S 180 0 min 0 W/m 15,4 C 20,0 C 13,0 km/h (3 Bft)
06/10/2011 14:50 19,8 C 76 % 1019,0 hPa 0,0 mm 6,8 km/h (2 Bft) S-SO 202 0 min 0 W/m 15,4 C 19,8 C 13,0 km/h (3 Bft)
06/10/2011 14:55 19,6 C 77 % 1019,3 hPa 0,0 mm 4,0 km/h (1 Bft) SO 225 0 min 0 W/m 15,5 C 19,6 C 9,4 km/h (2 Bft)
06/10/2011 15:00 19,2 C 79 % 1019,3 hPa 0,0 mm 3,2 km/h (1 Bft) O 270 0 min 0 W/m 15,5 C 19,2 C 7,9 km/h (2 Bft)
06/10/2011 15:05 18,8 C 81 % 1019,2 hPa 0,0 mm 0,7 km/h (0 Bft) O 270 0 min 0 W/m 15,5 C 18,8 C 3,2 km/h (1 Bft)
06/10/2011 15:10 18,3 C 82 % 1019,3 hPa 0,0 mm 10,4 km/h (2 Bft) O-SO 247 0 min 0 W/m 15,2 C 18,3 C 17,3 km/h (3 Bft)
06/10/2011 15:15 18,0 C 83 % 1019,2 hPa 0,0 mm 7,9 km/h (2 Bft) S-SO 202 0 min 0 W/m 15,1 C 18,0 C 7,9 km/h (2 Bft)
06/10/2011 15:20 17,6 C 84 % 1019,1 hPa 0,5 mm 7,9 km/h (2 Bft) S-SE 157 0 min 0 W/m 14,9 C 17,6 C 11,9 km/h (2 Bft)
06/10/2011 15:25 17,4 C 85 % 1019,1 hPa 0,0 mm 8,6 km/h (2 Bft) SO 225 0 min 0 W/m 14,8 C 17,4 C 8,6 km/h (2 Bft)
06/10/2011 15:30 17,2 C 86 % 1019,0 hPa 0,0 mm 6,8 km/h (2 Bft) SO 225 0 min 0 W/m 14,8 C 17,2 C 9,4 km/h (2 Bft)
06/10/2011 15:35 17,0 C 88 % 1018,8 hPa 0,0 mm 8,6 km/h (2 Bft) SO 225 0 min 0 W/m 15,0 C 17,0 C 10,8 km/h (2 Bft)
06/10/2011 15:40 17,1 C 89 % 1018,7 hPa 0,0 mm 10,8 km/h (2 Bft) SO 225 0 min 0 W/m 15,3 C 17,1 C 13,3 km/h (3 Bft)
06/10/2011 15:45 17,3 C 89 % 1018,5 hPa 0,0 mm 6,8 km/h (2 Bft) S-SO 202 0 min 0 W/m 15,5 C 17,3 C 12,2 km/h (2 Bft)
06/10/2011 15:50 17,6 C 90 % 1018,5 hPa 0,0 mm 8,3 km/h (2 Bft) O-SO 247 0 min 0 W/m 15,9 C 17,6 C 12,2 km/h (2 Bft)
06/10/2011 15:55 17,9 C 90 % 1018,5 hPa 0,0 mm 6,1 km/h (2 Bft) SO 225 0 min 0 W/m 16,2 C 17,9 C 18,4 km/h (3 Bft)
06/10/2011 16:00 18,1 C 89 % 1018,5 hPa 0,0 mm 11,2 km/h (2 Bft) S-SO 202 0 min 0 W/m 16,3 C 18,1 C 15,8 km/h (3 Bft)
06/10/2011 16:05 18,3 C 89 % 1018,4 hPa 0,0 mm 8,6 km/h (2 Bft) S-SO 202 0 min 0 W/m 16,5 C 18,3 C 12,6 km/h (3 Bft)
06/10/2011 16:10 18,4 C 88 % 1018,4 hPa 0,0 mm 5,0 km/h (1 Bft) S-SO 202 0 min 0 W/m 16,4 C 18,4 C 9,7 km/h (2 Bft)
06/10/2011 16:15 18,4 C 88 % 1018,4 hPa 0,0 mm 7,2 km/h (2 Bft) O-SO 247 0 min 0 W/m 16,4 C 18,4 C 10,1 km/h (2 Bft)
06/10/2011 16:20 18,4 C 87 % 1018,4 hPa 0,0 mm 4,0 km/h (1 Bft) O-SO 247 0 min 0 W/m 16,2 C 18,4 C 9,4 km/h (2 Bft)
06/10/2011 16:25 18,4 C 87 % 1018,3 hPa 0,0 mm 5,8 km/h (2 Bft) S-SO 202 0 min 0 W/m 16,2 C 18,4 C 6,1 km/h (2 Bft)
06/10/2011 16:30 18,4 C 87 % 1018,2 hPa 0,0 mm 4,7 km/h (1 Bft) S-SO 202 0 min 0 W/m 16,2 C 18,4 C 9,7 km/h (2 Bft)
06/10/2011 16:35 18,5 C 87 % 1018,2 hPa 0,0 mm 2,2 km/h (1 Bft) O 270 0 min 0 W/m 16,3 C 18,5 C 7,2 km/h (2 Bft)
06/10/2011 16:40 18,4 C 86 % 1018,4 hPa 0,0 mm 11,9 km/h (2 Bft) S 180 0 min 0 W/m 16,0 C 18,4 C 11,9 km/h (2 Bft)
06/10/2011 16:45 18,3 C 85 % 1018,5 hPa 0,0 mm 11,9 km/h (2 Bft) O-SO 247 0 min 0 W/m 15,7 C 18,3 C 15,8 km/h (3 Bft)
06/10/2011 16:50 18,0 C 85 % 1018,6 hPa 0,0 mm 10,4 km/h (2 Bft) O-NO 292 0 min 0 W/m 15,4 C 18,0 C 16,9 km/h (3 Bft)
06/10/2011 16:55 17,7 C 86 % 1018,6 hPa 0,0 mm 4,0 km/h (1 Bft) O-SO 247 0 min 0 W/m 15,3 C 17,7 C 11,5 km/h (2 Bft)
06/10/2011 17:00 17,5 C 86 % 1018,5 hPa 0,0 mm 5,4 km/h (2 Bft) NO 315 0 min 0 W/m 15,1 C 17,5 C 13,0 km/h (3 Bft)
06/10/2011 17:05 17,4 C 86 % 1018,7 hPa 0,0 mm 4,7 km/h (1 Bft) S-SO 202 0 min 0 W/m 15,0 C 17,4 C 11,5 km/h (2 Bft)
06/10/2011 17:10 17,4 C 86 % 1018,6 hPa 0,0 mm 1,1 km/h (1 Bft) S-SO 202 0 min 0 W/m 15,0 C 17,4 C 4,3 km/h (1 Bft)
06/10/2011 17:15 17,4 C 86 % 1018,6 hPa 0,0 mm 1,4 km/h (1 Bft) O-NO 292 0 min 0 W/m 15,0 C 17,4 C 3,6 km/h (1 Bft)
06/10/2011 17:20 17,3 C 86 % 1018,6 hPa 0,0 mm 4,7 km/h (1 Bft) O 270 0 min 0 W/m 14,9 C 17,3 C 12,2 km/h (2 Bft)
06/10/2011 17:25 17,3 C 86 % 1018,6 hPa 0,0 mm 3,6 km/h (1 Bft) O-SO 247 0 min 0 W/m 14,9 C 17,3 C 11,9 km/h (2 Bft)
06/10/2011 17:30 17,2 C 86 % 1018,6 hPa 0,0 mm 5,4 km/h (2 Bft) S-SO 202 0 min 0 W/m 14,8 C 17,2 C 12,6 km/h (3 Bft)
06/10/2011 17:35 17,2 C 86 % 1018,4 hPa 0,0 mm 4,7 km/h (1 Bft) O-SO 247 0 min 0 W/m 14,8 C 17,2 C 4,7 km/h (1 Bft)
06/10/2011 17:40 17,2 C 86 % 1018,3 hPa 0,0 mm 4,0 km/h (1 Bft) SO 225 0 min 0 W/m 14,8 C 17,2 C 4,0 km/h (1 Bft)
06/10/2011 17:45 17,2 C 86 % 1018,2 hPa 0,0 mm 0,7 km/h (0 Bft) O-SO 247 0 min 0 W/m 14,8 C 17,2 C 4,3 km/h (1 Bft)
06/10/2011 17:50 17,2 C 86 % 1018,2 hPa 0,0 mm 1,8 km/h (1 Bft) O-SO 247 0 min 0 W/m 14,8 C 17,2 C 4,0 km/h (1 Bft)
06/10/2011 17:55 17,3 C 86 % 1018,4 hPa 0,0 mm 0,0 km/h (0 Bft) O-SO 247 0 min 0 W/m 14,9 C 17,3 C 0,0 km/h (0 Bft)
06/10/2011 18:00 17,3 C 86 % 1018,4 hPa 0,0 mm 4,0 km/h (1 Bft) O-SO 247 0 min 0 W/m 14,9 C 17,3 C 9,7 km/h (2 Bft)
06/10/2011 18:05 17,3 C 86 % 1018,5 hPa 0,0 mm 1,1 km/h (1 Bft) O 270 0 min 0 W/m 14,9 C 17,3 C 2,9 km/h (1 Bft)
06/10/2011 18:10 17,3 C 86 % 1018,4 hPa 0,0 mm 0,4 km/h (0 Bft) O 270 0 min 0 W/m 14,9 C 17,3 C 3,2 km/h (1 Bft)
06/10/2011 18:15 17,3 C 86 % 1018,4 hPa 0,0 mm 4,0 km/h (1 Bft) S-SE 157 0 min 0 W/m 14,9 C 17,3 C 8,6 km/h (2 Bft)
06/10/2011 18:20 17,4 C 86 % 1018,4 hPa 0,0 mm 1,4 km/h (1 Bft) O-SO 247 0 min 0 W/m 15,0 C 17,4 C 4,3 km/h (1 Bft)
06/10/2011 18:25 17,4 C 86 % 1018,2 hPa 0,0 mm 1,8 km/h (1 Bft) O-SO 247 0 min 0 W/m 15,0 C 17,4 C 4,3 km/h (1 Bft)
06/10/2011 18:30 17,3 C 86 % 1018,3 hPa 0,0 mm 0,0 km/h (0 Bft) O-SO 247 0 min 0 W/m 14,9 C 17,3 C 0,0 km/h (0 Bft)
06/10/2011 18:35 17,3 C 86 % 1018,4 hPa 0,0 mm 1,8 km/h (1 Bft) O-NO 292 0 min 0 W/m 14,9 C 17,3 C 1,8 km/h (1 Bft)
06/10/2011 18:40 17,3 C 86 % 1018,4 hPa 0,0 mm 3,2 km/h (1 Bft) SO 225 0 min 0 W/m 14,9 C 17,3 C 3,2 km/h (1 Bft)
06/10/2011 18:45 17,3 C 86 % 1018,3 hPa 0,0 mm 3,2 km/h (1 Bft) O 270 0 min 0 W/m 14,9 C 17,3 C 8,3 km/h (2 Bft)
06/10/2011 18:50 17,2 C 86 % 1018,3 hPa 0,0 mm 1,8 km/h (1 Bft) SO 225 0 min 0 W/m 14,8 C 17,2 C 3,6 km/h (1 Bft)
06/10/2011 18:55 17,2 C 86 % 1018,3 hPa 0,0 mm 1,1 km/h (1 Bft) SO 225 0 min 0 W/m 14,8 C 17,2 C 4,7 km/h (1 Bft)
06/10/2011 19:00 17,1 C 86 % 1018,2 hPa 0,0 mm 3,2 km/h (1 Bft) O-NO 292 0 min 0 W/m 14,7 C 17,1 C 7,2 km/h (2 Bft)
06/10/2011 19:05 17,1 C 86 % 1018,2 hPa 0,0 mm 0,4 km/h (0 Bft) S 180 0 min 0 W/m 14,7 C 17,1 C 0,4 km/h (0 Bft)
06/10/2011 19:10 17,1 C 86 % 1018,2 hPa 0,0 mm 1,8 km/h (1 Bft) O-SO 247 0 min 0 W/m 14,7 C 17,1 C 11,5 km/h (2 Bft)
06/10/2011 19:15 17,0 C 86 % 1018,1 hPa 0,0 mm 0,0 km/h (0 Bft) O 270 0 min 0 W/m 14,6 C 17,0 C 0,0 km/h (0 Bft)
06/10/2011 19:20 16,9 C 86 % 1018,3 hPa 0,0 mm 6,5 km/h (2 Bft) O-NO 292 0 min 0 W/m 14,5 C 16,9 C 6,5 km/h (2 Bft)
06/10/2011 19:25 16,9 C 86 % 1018,4 hPa 0,0 mm 6,5 km/h (2 Bft) N 360 0 min 0 W/m 14,5 C 16,9 C 6,5 km/h (2 Bft)
06/10/2011 19:30 16,8 C 86 % 1018,4 hPa 0,0 mm 8,3 km/h (2 Bft) SO 225 0 min 0 W/m 14,4 C 16,8 C 18,4 km/h (3 Bft)
06/10/2011 19:35 16,8 C 86 % 1018,5 hPa 0,0 mm 10,4 km/h (2 Bft) O 270 0 min 0 W/m 14,4 C 16,8 C 10,4 km/h (2 Bft)
06/10/2011 19:40 16,6 C 85 % 1018,6 hPa 0,0 mm 2,5 km/h (1 Bft) O-SO 247 0 min 0 W/m 14,1 C 16,6 C 7,2 km/h (2 Bft)
06/10/2011 19:45 16,5 C 85 % 1018,8 hPa 0,0 mm 5,0 km/h (1 Bft) O-NO 292 0 min 0 W/m 14,0 C 16,5 C 9,0 km/h (2 Bft)
06/10/2011 19:50 16,4 C 84 % 1018,7 hPa 0,0 mm 7,6 km/h (2 Bft) O 270 0 min 0 W/m 13,7 C 16,4 C 15,5 km/h (3 Bft)
06/10/2011 19:55 16,3 C 83 % 1018,9 hPa 0,0 mm 4,3 km/h (1 Bft) O 270 0 min 0 W/m 13,4 C 16,3 C 4,3 km/h (1 Bft)
06/10/2011 20:00 16,2 C 82 % 1019,0 hPa 0,0 mm 3,6 km/h (1 Bft) O-SO 247 0 min 0 W/m 13,1 C 16,2 C 10,1 km/h (2 Bft)
06/10/2011 20:05 16,1 C 82 % 1019,1 hPa 0,0 mm 7,6 km/h (2 Bft) O-NO 292 0 min 0 W/m 13,0 C 16,1 C 14,8 km/h (3 Bft)
06/10/2011 20:10 16,1 C 82 % 1019,2 hPa 0,0 mm 3,2 km/h (1 Bft) E 90 0 min 0 W/m 13,0 C 16,1 C 4,0 km/h (1 Bft)
06/10/2011 20:15 15,9 C 82 % 1019,3 hPa 0,0 mm 4,0 km/h (1 Bft) NO 315 0 min 0 W/m 12,8 C 15,9 C 7,2 km/h (2 Bft)
06/10/2011 20:20 15,9 C 82 % 1019,5 hPa 0,0 mm 0,4 km/h (0 Bft) NO 315 0 min 0 W/m 12,8 C 15,9 C 3,6 km/h (1 Bft)
06/10/2011 20:25 15,8 C 82 % 1019,5 hPa 0,0 mm 4,7 km/h (1 Bft) N-NO 337 0 min 0 W/m 12,7 C 15,8 C 7,6 km/h (2 Bft)
06/10/2011 20:30 15,8 C 82 % 1019,6 hPa 0,0 mm 3,6 km/h (1 Bft) SO 225 0 min 0 W/m 12,7 C 15,8 C 6,8 km/h (2 Bft)
06/10/2011 20:35 15,6 C 82 % 1019,6 hPa 0,0 mm 2,2 km/h (1 Bft) E-SE 112 0 min 0 W/m 12,5 C 15,6 C 3,6 km/h (1 Bft)
06/10/2011 20:40 15,4 C 81 % 1019,7 hPa 0,0 mm 4,7 km/h (1 Bft) NO 315 0 min 0 W/m 12,2 C 15,4 C 7,9 km/h (2 Bft)
06/10/2011 20:45 15,4 C 81 % 1019,9 hPa 0,0 mm 5,4 km/h (2 Bft) O 270 0 min 0 W/m 12,2 C 15,4 C 5,4 km/h (2 Bft)
06/10/2011 20:50 15,3 C 80 % 1020,0 hPa 0,0 mm 4,7 km/h (1 Bft) E 90 0 min 0 W/m 11,9 C 15,3 C 9,7 km/h (2 Bft)
06/10/2011 20:55 15,1 C 80 % 1020,0 hPa 0,0 mm 10,1 km/h (2 Bft) N-NO 337 0 min 0 W/m 11,7 C 15,1 C 22,0 km/h (4 Bft)
06/10/2011 21:00 15,1 C 79 % 1020,1 hPa 0,0 mm 3,6 km/h (1 Bft) NO 315 0 min 0 W/m 11,5 C 15,1 C 6,8 km/h (2 Bft)
06/10/2011 21:05 14,9 C 79 % 1020,0 hPa 0,0 mm 4,0 km/h (1 Bft) N 360 0 min 0 W/m 11,3 C 14,9 C 6,5 km/h (2 Bft)
06/10/2011 21:10 14,8 C 79 % 1020,1 hPa 0,0 mm 6,8 km/h (2 Bft) NO 315 0 min 0 W/m 11,2 C 14,8 C 10,8 km/h (2 Bft)
06/10/2011 21:15 14,6 C 79 % 1020,0 hPa 0,0 mm 1,1 km/h (1 Bft) NO 315 0 min 0 W/m 11,0 C 14,6 C 3,6 km/h (1 Bft)
06/10/2011 21:20 14,5 C 79 % 1020,1 hPa 0,0 mm 0,7 km/h (0 Bft) N-NO 337 0 min 0 W/m 10,9 C 14,5 C 4,0 km/h (1 Bft)
06/10/2011 21:25 14,3 C 79 % 1020,1 hPa 0,0 mm 0,0 km/h (0 Bft) N-NO 337 0 min 0 W/m 10,7 C 14,3 C 0,0 km/h (0 Bft)
06/10/2011 21:30 14,2 C 79 % 1020,2 hPa 0,0 mm 0,0 km/h (0 Bft) N-NO 337 0 min 0 W/m 10,6 C 14,2 C 0,0 km/h (0 Bft)
06/10/2011 21:35 14,0 C 80 % 1020,3 hPa 0,0 mm 0,0 km/h (0 Bft) N-NO 337 0 min 0 W/m 10,6 C 14,0 C 0,0 km/h (0 Bft)
06/10/2011 21:40 13,9 C 80 % 1020,2 hPa 0,0 mm 0,0 km/h (0 Bft) N-NO 337 0 min 0 W/m 10,5 C 13,9 C 0,0 km/h (0 Bft)
06/10/2011 21:45 13,8 C 80 % 1020,3 hPa 0,0 mm 0,0 km/h (0 Bft) NO 315 0 min 0 W/m 10,4 C 13,8 C 0,0 km/h (0 Bft)
06/10/2011 21:50 13,6 C 80 % 1020,3 hPa 0,0 mm 0,0 km/h (0 Bft) NO 315 0 min 0 W/m 10,2 C 13,6 C 0,0 km/h (0 Bft)
06/10/2011 21:55 13,5 C 80 % 1020,1 hPa 0,0 mm 0,0 km/h (0 Bft) O-SO 247 0 min 0 W/m 10,1 C 13,5 C 3,2 km/h (1 Bft)
06/10/2011 22:00 13,4 C 81 % 1020,2 hPa 0,0 mm 0,0 km/h (0 Bft) O-NO 292 0 min 0 W/m 10,2 C 13,4 C 3,6 km/h (1 Bft)
06/10/2011 22:05 13,4 C 81 % 1020,2 hPa 0,0 mm 0,0 km/h (0 Bft) O-SO 247 0 min 0 W/m 10,2 C 13,4 C 0,0 km/h (0 Bft)
06/10/2011 22:10 13,3 C 81 % 1020,1 hPa 0,0 mm 0,0 km/h (0 Bft) O-SO 247 0 min 0 W/m 10,1 C 13,3 C 0,0 km/h (0 Bft)
06/10/2011 22:15 13,1 C 81 % 1020,1 hPa 0,0 mm 0,0 km/h (0 Bft) O-SO 247 0 min 0 W/m 9,9 C 13,1 C 0,0 km/h (0 Bft)
06/10/2011 22:20 13,0 C 81 % 1020,2 hPa 0,0 mm 0,0 km/h (0 Bft) O-SO 247 0 min 0 W/m 9,8 C 13,0 C 0,0 km/h (0 Bft)
06/10/2011 22:25 12,9 C 81 % 1020,2 hPa 0,0 mm 0,0 km/h (0 Bft) O-SO 247 0 min 0 W/m 9,7 C 12,9 C 0,0 km/h (0 Bft)
06/10/2011 22:30 12,9 C 82 % 1020,3 hPa 0,0 mm 0,0 km/h (0 Bft) O-SO 247 0 min 0 W/m 9,9 C 12,9 C 0,0 km/h (0 Bft)
06/10/2011 22:35 12,8 C 82 % 1020,3 hPa 0,0 mm 0,0 km/h (0 Bft) SO 225 0 min 0 W/m 9,8 C 12,8 C 0,0 km/h (0 Bft)
06/10/2011 22:40 12,8 C 83 % 1020,3 hPa 0,0 mm 0,0 km/h (0 Bft) SO 225 0 min 0 W/m 10,0 C 12,8 C 0,0 km/h (0 Bft)
06/10/2011 22:45 12,8 C 83 % 1020,3 hPa 0,0 mm 0,4 km/h (0 Bft) SO 225 0 min 0 W/m 10,0 C 12,8 C 4,0 km/h (1 Bft)
06/10/2011 22:50 12,7 C 83 % 1020,3 hPa 0,0 mm 0,0 km/h (0 Bft) SO 225 0 min 0 W/m 9,9 C 12,7 C 0,0 km/h (0 Bft)
06/10/2011 22:55 12,6 C 84 % 1020,3 hPa 0,0 mm 0,4 km/h (0 Bft) O-SO 247 0 min 0 W/m 10,0 C 12,6 C 4,3 km/h (1 Bft)
_ Min-Heure 04:05 14:45 19:15 - 22:50 - - - - 04:05 04:05 22:50
Minimum _ 9,6 C 75 % 1018,1 hPa - 0,0 km/h (0 Bft) - - - - 7,7 C 9,6 C 0,0 km/h (0 Bft)
_ Max-Heure 14:35 09:05 00:55 15:20 13:30 - - 22:55 22:55 16:05 14:35 20:55
Maximum _ 20,4 C 93 % 1023,6 hPa 0,5 mm 15,1 km/h
S-SO (3 Bft)
- - 0 min 0 W/m 16,5 C 20,4 C 22,0 km/h
N-NO (4 Bft)
Moyenne _ 14,4 C 86 % 1020,7 hPa #0,5 mm 3,5 km/h (1 Bft) S-SO - #0 min. 0 W/m 12,1 C 14,4 C 5,9 km/h (2 Bft)
Saint Bonnet de Bellac- Haute Vienne - France